Location: Aragüita
(10.0436°N, 67.8028°W)
Time: 05:53:22
(UTC+00:00)

Cosmos 1862 Rocket - Visible Passes

Search period start: 16 July 2024 00:00
Search period end: 26 July 2024 00:00
Orbit: 601 x 629 km, 82.5° (Epoch: 15 July)

Date Brightness Start Highest point End Pass type
(mag) Time Alt. Az. Time Alt. Az. Time Alt. Az.
16 Jul 4.4 09:28:27 10° N 09:32:38 51° E 09:36:48 10° SSE visible
17 Jul 3.5 09:44:26 10° N 09:48:41 68° W 09:52:57 10° S visible
19 Jul 6.0 08:39:56 10° NE 08:43:14 21° E 08:46:31 10° SE visible
20 Jul 4.5 08:55:12 10° N 08:59:19 47° E 09:03:26 10° SSE visible
21 Jul 3.4 09:11:05 10° N 09:15:22 75° W 09:19:39 10° S visible
22 Jul 4.2 09:27:33 10° NNW 09:31:23 32° W 09:35:14 10° SSW visible
23 Jul 6.0 08:06:47 10° NE 08:09:54 20° E 08:13:01 10° SE visible
23 Jul 5.1 09:44:54 10° NW 09:47:22 15° W 09:49:53 10° SW visible
24 Jul 4.6 08:21:55 10° NNE 08:25:59 42° E 08:28:06 24° SE visible
25 Jul 3.3 08:37:44 10° N 08:42:02 83° W 08:42:20 75° SSW visible
